RUC2377 SVVA-SVSA

Flight info

Callsign RUC2377
Flight time 0h 48m
Altitude 34000
Route DAKDI1 NOSCA UW14 BRM UW8 LFA LFA1B
Aircraft B737/M-SDE2E3FGHIRWXY/LB1

Departure

Time 2026-04-19 22:28
Airport Arturo Michelena International Airport (SVVA)

Arrival

Time 2026-04-19 23:16
Airport Juan Vicente Gómez International Airport (SVSA)
Time Latitude Longitude Altitude Speed Heading
2026-04-19 22:08 10.15410 -67.92034 1417 ft 0 kts 274°
2026-04-19 22:22 10.15390 -67.92040 1417 ft 6 kts 168°
2026-04-19 22:23 10.15381 -67.92039 1417 ft 0 kts 178°
2026-04-19 22:23 10.15373 -67.92037 1417 ft 0 kts 166°
2026-04-19 22:23 10.15364 -67.92038 1417 ft 2 kts 184°
2026-04-19 22:24 10.15346 -67.92040 1420 ft 12 kts 185°
2026-04-19 22:24 10.15249 -67.92047 1417 ft 12 kts 184°
2026-04-19 22:24 10.15190 -67.92051 1417 ft 6 kts 182°
2026-04-19 22:24 10.15123 -67.92046 1418 ft 10 kts 149°
2026-04-19 22:25 10.15102 -67.91972 1413 ft 9 kts 89°
2026-04-19 22:25 10.15100 -67.91940 1412 ft 0 kts 94°
2026-04-19 22:25 10.15100 -67.91932 1418 ft 3 kts 93°
2026-04-19 22:25 10.15098 -67.91883 1415 ft 12 kts 91°
2026-04-19 22:26 10.15097 -67.91817 1410 ft 0 kts 90°
2026-04-19 22:26 10.15095 -67.91790 1409 ft 7 kts 95°
2026-04-19 22:26 10.15090 -67.91716 1407 ft 15 kts 94°
2026-04-19 22:26 10.15081 -67.91589 1407 ft 21 kts 94°
2026-04-19 22:27 10.15013 -67.91492 1408 ft 16 kts 181°
2026-04-19 22:27 10.14920 -67.91516 1408 ft 14 kts 245°
2026-04-19 22:27 10.14929 -67.91795 1411 ft 74 kts 272°
2026-04-19 22:27 10.14965 -67.92549 1414 ft 136 kts 272°
2026-04-19 22:28 10.15023 -67.93687 1469 ft 183 kts 273°
2026-04-19 22:28 10.15099 -67.95008 2155 ft 184 kts 273°
2026-04-19 22:28 10.15178 -67.96275 3084 ft 182 kts 272°
2026-04-19 22:28 10.15234 -67.97669 3424 ft 213 kts 271°
2026-04-19 22:29 10.15144 -67.99195 3629 ft 240 kts 253°
2026-04-19 22:29 10.14519 -68.00876 3907 ft 269 kts 246°
2026-04-19 22:29 10.13723 -68.02710 4164 ft 298 kts 246°
2026-04-19 22:29 10.12844 -68.04680 4403 ft 323 kts 245°
2026-04-19 22:30 10.11899 -68.06789 4995 ft 333 kts 245°
2026-04-19 22:30 10.10937 -68.08942 5756 ft 336 kts 245°
2026-04-19 22:30 10.09966 -68.11123 6537 ft 340 kts 246°
2026-04-19 22:30 10.08993 -68.13320 7330 ft 343 kts 246°
2026-04-19 22:31 10.08015 -68.15538 8102 ft 347 kts 246°
2026-04-19 22:31 10.07025 -68.17787 8841 ft 351 kts 246°
2026-04-19 22:31 10.06025 -68.20062 9577 ft 355 kts 246°
2026-04-19 22:31 10.05015 -68.22362 10327 ft 358 kts 246°
2026-04-19 22:32 10.03997 -68.24677 11116 ft 360 kts 247°
2026-04-19 22:32 10.02971 -68.27014 11911 ft 363 kts 248°
2026-04-19 22:32 10.01941 -68.29363 12701 ft 366 kts 248°
2026-04-19 22:32 10.00901 -68.31734 13443 ft 369 kts 248°
2026-04-19 22:33 9.99851 -68.34123 14184 ft 372 kts 248°
2026-04-19 22:33 9.98807 -68.36500 14898 ft 375 kts 248°
2026-04-19 22:33 9.98087 -68.38139 15370 ft 378 kts 247°
2026-04-19 22:33 9.96661 -68.41383 16256 ft 382 kts 248°
2026-04-19 22:34 9.95574 -68.43855 16927 ft 385 kts 247°
2026-04-19 22:34 9.94476 -68.46349 17560 ft 388 kts 247°
2026-04-19 22:34 9.93372 -68.48859 18173 ft 391 kts 247°
2026-04-19 22:34 9.92636 -68.50531 18596 ft 392 kts 247°
2026-04-19 22:35 9.92259 -68.51389 18806 ft 393 kts 247°
2026-04-19 22:35 9.90010 -68.56498 19919 ft 400 kts 247°
2026-04-19 22:35 9.88872 -68.59083 20451 ft 402 kts 247°
2026-04-19 22:35 9.87726 -68.61684 20934 ft 406 kts 247°
2026-04-19 22:36 9.86587 -68.64271 21407 ft 408 kts 247°
2026-04-19 22:36 9.85423 -68.66910 21860 ft 411 kts 247°
2026-04-19 22:36 9.84249 -68.69574 22299 ft 415 kts 247°
2026-04-19 22:36 9.83067 -68.72253 22753 ft 417 kts 247°
2026-04-19 22:37 9.81882 -68.74940 23187 ft 419 kts 247°
2026-04-19 22:37 9.80688 -68.77648 23570 ft 422 kts 247°
2026-04-19 22:37 9.79483 -68.80378 23957 ft 424 kts 247°
2026-04-19 22:37 9.78275 -68.83114 24338 ft 426 kts 247°
2026-04-19 22:38 9.77062 -68.85862 24703 ft 428 kts 247°
2026-04-19 22:38 9.75844 -68.88620 25083 ft 429 kts 247°
2026-04-19 22:38 9.74624 -68.91382 25455 ft 430 kts 247°
2026-04-19 22:38 9.73400 -68.94151 25799 ft 431 kts 246°
2026-04-19 22:39 9.72168 -68.96940 26115 ft 433 kts 246°
2026-04-19 22:39 9.70949 -68.99697 26414 ft 435 kts 246°
2026-04-19 22:39 9.69711 -69.02497 26744 ft 436 kts 246°
2026-04-19 22:39 9.68470 -69.05304 27057 ft 437 kts 246°
2026-04-19 22:40 9.67225 -69.08119 27340 ft 439 kts 246°
2026-04-19 22:40 9.65973 -69.10947 27609 ft 440 kts 246°
2026-04-19 22:40 9.64716 -69.13787 27879 ft 441 kts 246°
2026-04-19 22:40 9.63459 -69.16626 28146 ft 442 kts 245°
2026-04-19 22:41 9.62198 -69.19475 28399 ft 444 kts 246°
2026-04-19 22:41 9.61359 -69.21368 28572 ft 444 kts 245°
2026-04-19 22:41 9.59663 -69.25197 28900 ft 446 kts 245°
2026-04-19 22:41 9.58391 -69.28066 29139 ft 447 kts 245°
2026-04-19 22:42 9.57130 -69.30909 29370 ft 448 kts 245°
2026-04-19 22:42 9.55855 -69.33787 29603 ft 448 kts 245°
2026-04-19 22:42 9.54577 -69.36668 29887 ft 448 kts 245°
2026-04-19 22:42 9.53302 -69.39544 30211 ft 447 kts 245°
2026-04-19 22:43 9.52025 -69.42421 30578 ft 446 kts 245°
2026-04-19 22:43 9.50760 -69.45273 31010 ft 442 kts 245°
2026-04-19 22:43 9.49499 -69.48114 31427 ft 440 kts 245°
2026-04-19 22:43 9.48245 -69.50937 31776 ft 439 kts 245°
2026-04-19 22:44 9.46989 -69.53764 32126 ft 439 kts 245°
2026-04-19 22:44 9.45741 -69.56575 32528 ft 437 kts 245°
2026-04-19 22:44 9.44512 -69.59336 32932 ft 435 kts 245°
2026-04-19 22:44 9.43274 -69.62122 33334 ft 433 kts 245°
2026-04-19 22:45 9.42040 -69.64898 33720 ft 432 kts 245°
2026-04-19 22:45 9.40808 -69.67670 34141 ft 429 kts 245°
2026-04-19 22:45 9.39583 -69.70422 34525 ft 428 kts 245°
2026-04-19 22:45 9.38359 -69.73172 34794 ft 429 kts 245°
2026-04-19 22:46 9.37133 -69.75927 35134 ft 428 kts 245°
2026-04-19 22:46 9.35911 -69.78675 35502 ft 427 kts 244°
2026-04-19 22:46 9.34696 -69.81406 35859 ft 425 kts 245°
2026-04-19 22:47 9.32235 -69.86928 35901 ft 434 kts 244°
2026-04-19 22:47 9.29722 -69.92563 35898 ft 442 kts 244°
2026-04-19 22:48 9.27202 -69.98217 35883 ft 444 kts 244°
2026-04-19 22:48 9.24658 -70.03919 35881 ft 445 kts 245°
2026-04-19 22:49 9.22112 -70.09623 35877 ft 445 kts 245°
2026-04-19 22:49 9.19561 -70.15335 35881 ft 445 kts 245°
2026-04-19 22:50 9.17014 -70.21036 35880 ft 445 kts 245°
2026-04-19 22:50 9.14460 -70.26751 35881 ft 445 kts 245°
2026-04-19 22:51 9.11922 -70.32425 35861 ft 446 kts 245°
2026-04-19 22:51 9.08083 -70.41003 35883 ft 445 kts 245°
2026-04-19 22:52 9.05527 -70.46714 35862 ft 446 kts 245°
2026-04-19 22:52 9.02964 -70.52428 35861 ft 446 kts 245°
2026-04-19 22:53 9.00834 -70.57183 35858 ft 446 kts 245°
2026-04-19 22:53 8.98270 -70.62904 35868 ft 446 kts 244°
2026-04-19 22:54 8.95700 -70.68634 35848 ft 447 kts 244°
2026-04-19 22:54 8.93129 -70.74363 35853 ft 447 kts 245°
2026-04-19 22:55 8.90572 -70.80057 35862 ft 447 kts 245°
2026-04-19 22:55 8.88005 -70.85772 35887 ft 446 kts 244°
2026-04-19 22:56 8.85436 -70.91488 35884 ft 446 kts 244°
2026-04-19 22:56 8.82867 -70.97200 35889 ft 447 kts 244°
2026-04-19 22:57 8.80289 -71.02930 35889 ft 448 kts 244°
2026-04-19 22:57 8.77700 -71.08679 35881 ft 449 kts 244°
2026-04-19 22:58 8.75114 -71.14424 35884 ft 448 kts 244°
2026-04-19 22:58 8.72529 -71.20163 35888 ft 448 kts 244°
2026-04-19 22:59 8.69957 -71.25869 35861 ft 449 kts 244°
2026-04-19 22:59 8.67372 -71.31603 35880 ft 448 kts 244°
2026-04-19 23:00 8.64806 -71.37297 35872 ft 443 kts 244°
2026-04-19 23:00 8.62251 -71.42951 35396 ft 447 kts 244°
2026-04-19 23:01 8.60960 -71.45809 34712 ft 446 kts 244°
2026-04-19 23:01 8.59667 -71.48670 33857 ft 448 kts 244°
2026-04-19 23:01 8.58372 -71.51537 33000 ft 449 kts 244°
2026-04-19 23:01 8.57068 -71.54423 32079 ft 451 kts 244°
2026-04-19 23:02 8.55763 -71.57308 31120 ft 454 kts 245°
2026-04-19 23:02 8.54446 -71.60222 30098 ft 456 kts 245°
2026-04-19 23:02 8.53121 -71.63151 29027 ft 458 kts 245°
2026-04-19 23:02 8.51795 -71.66085 27867 ft 462 kts 246°
2026-04-19 23:03 8.50472 -71.69012 26870 ft 462 kts 246°
2026-04-19 23:03 8.49144 -71.71947 26031 ft 457 kts 246°
2026-04-19 23:03 8.47827 -71.74855 25180 ft 453 kts 246°
2026-04-19 23:03 8.46521 -71.77738 24341 ft 449 kts 246°
2026-04-19 23:04 8.45228 -71.80594 23499 ft 445 kts 246°
2026-04-19 23:04 8.43947 -71.83424 22675 ft 441 kts 246°
2026-04-19 23:04 8.42673 -71.86235 21839 ft 437 kts 246°
2026-04-19 23:04 8.41416 -71.89015 21008 ft 432 kts 246°
2026-04-19 23:05 8.40177 -71.91752 20187 ft 427 kts 246°
2026-04-19 23:05 8.38941 -71.94475 19443 ft 424 kts 246°
2026-04-19 23:05 8.37722 -71.97161 19224 ft 420 kts 246°
2026-04-19 23:05 8.36525 -71.99800 19074 ft 406 kts 246°
2026-04-19 23:06 8.35373 -72.02337 18949 ft 390 kts 246°
2026-04-19 23:06 8.34267 -72.04776 18912 ft 385 kts 246°
2026-04-19 23:06 8.33158 -72.07220 18204 ft 382 kts 246°
2026-04-19 23:06 8.32056 -72.09666 17051 ft 384 kts 246°
2026-04-19 23:07 8.30945 -72.12112 15887 ft 381 kts 245°
2026-04-19 23:07 8.29811 -72.14504 14718 ft 378 kts 246°
2026-04-19 23:07 8.28724 -72.16926 13587 ft 379 kts 246°
2026-04-19 23:07 8.27660 -72.19316 13234 ft 364 kts 246°
2026-04-19 23:08 8.26629 -72.21621 12761 ft 357 kts 246°
2026-04-19 23:08 8.25598 -72.23904 11742 ft 357 kts 246°
2026-04-19 23:08 8.24545 -72.26162 10653 ft 355 kts 240°
2026-04-19 23:08 8.23017 -72.28065 9550 ft 357 kts 222°
2026-04-19 23:09 8.21112 -72.29667 8501 ft 354 kts 219°
2026-04-19 23:09 8.19193 -72.31216 7455 ft 352 kts 219°
2026-04-19 23:09 8.17290 -72.32759 6419 ft 348 kts 219°
2026-04-19 23:09 8.15449 -72.34278 5665 ft 336 kts 220°
2026-04-19 23:10 8.13688 -72.35736 5478 ft 320 kts 219°
2026-04-19 23:10 8.11999 -72.37134 5303 ft 309 kts 220°
2026-04-19 23:10 8.10358 -72.38539 5193 ft 312 kts 221°
2026-04-19 23:10 8.08741 -72.39951 5068 ft 301 kts 221°
2026-04-19 23:11 8.07191 -72.41309 4941 ft 288 kts 221°
2026-04-19 23:11 8.05727 -72.42587 4832 ft 275 kts 221°
2026-04-19 23:11 8.04306 -72.43826 4712 ft 264 kts 221°
2026-04-19 23:11 8.02943 -72.45011 4608 ft 254 kts 220°
2026-04-19 23:12 8.01631 -72.46152 4504 ft 244 kts 220°
2026-04-19 23:12 8.00368 -72.47242 4403 ft 234 kts 217°
2026-04-19 23:12 7.98918 -72.47881 4178 ft 227 kts 186°
2026-04-19 23:12 7.97375 -72.47761 3898 ft 220 kts 167°
2026-04-19 23:13 7.95940 -72.47370 3718 ft 203 kts 164°
2026-04-19 23:13 7.94651 -72.46992 3572 ft 183 kts 163°
2026-04-19 23:13 7.93486 -72.46686 3356 ft 166 kts 171°
2026-04-19 23:13 7.92383 -72.46392 3051 ft 155 kts 163°
2026-04-19 23:14 7.91413 -72.46089 2744 ft 144 kts 163°
2026-04-19 23:14 7.90472 -72.45800 2469 ft 140 kts 164°
2026-04-19 23:14 7.89520 -72.45526 2274 ft 145 kts 164°
2026-04-19 23:14 7.88542 -72.45247 2065 ft 147 kts 164°
2026-04-19 23:15 7.87564 -72.44970 1848 ft 145 kts 164°
2026-04-19 23:15 7.86603 -72.44699 1645 ft 143 kts 164°
2026-04-19 23:15 7.85643 -72.44429 1447 ft 143 kts 164°
2026-04-19 23:15 7.84706 -72.44164 1257 ft 135 kts 163°
2026-04-19 23:16 7.84055 -72.43979 1272 ft 51 kts 164°
2026-04-19 23:16 7.83813 -72.43912 1286 ft 28 kts 165°
2026-04-19 23:16 7.83714 -72.43899 1290 ft 1 kts 161°
2026-04-19 23:16 7.83723 -72.43880 1290 ft 5 kts 359°
2026-04-19 23:17 7.83782 -72.43904 1287 ft 7 kts 345°
2026-04-19 23:17 7.83813 -72.43912 1286 ft 4 kts 344°
2026-04-19 23:17 7.83901 -72.43941 1281 ft 12 kts 325°
2026-04-19 23:17 7.83904 -72.43956 1280 ft 1 kts 259°
2026-04-19 23:18 7.83895 -72.43985 1279 ft 4 kts 253°
2026-04-19 23:18 7.83894 -72.43990 1279 ft 0 kts 253°